Location: Omaha
(41.2590°N, 95.9380°W)
Time: 10:30:13
(UTC-05:00)

Vanguard 1 Rocket - Visible Passes

Search period start: 18 June 2018 00:00
Search period end: 28 June 2018 00:00
Orbit: 653 x 4224 km, 34.3° (Epoch: 18 June)

Date Brightness Start Highest point End Pass type
(mag) Time Alt. Az. Time Alt. Az. Time Alt. Az.
18 Jun 10.4 01:37:46 10° WSW 01:43:35 20° SW 01:43:35 20° SW visible
18 Jun 8.8 22:00:43 10° W 22:07:18 46° S 22:18:20 13° ESE visible
19 Jun 9.9 00:25:45 10° WSW 00:34:12 28° SSW 00:35:32 28° SSW visible
19 Jun 9.4 23:14:41 10° W 23:22:06 34° SSW 23:27:36 25° SSE visible
20 Jun 10.6 01:43:02 10° WSW 01:44:49 12° SW 01:44:49 12° SW visible
20 Jun 8.9 22:04:08 10° W 22:10:26 39° SSW 22:19:45 14° SE visible
21 Jun 10.2 00:29:57 10° WSW 00:36:59 21° SSW 00:36:59 21° SSW visible
21 Jun 9.7 23:18:27 10° WSW 23:25:14 27° SSW 23:29:14 23° S visible
22 Jun 9.1 22:07:41 10° WSW 22:13:37 32° SSW 22:21:33 14° SE visible
23 Jun 10.4 00:35:04 10° WSW 00:38:47 14° SW 00:38:47 14° SW visible
23 Jun 9.9 23:22:36 10° WSW 23:28:25 20° SSW 23:31:10 18° S visible
24 Jun 9.4 22:11:25 10° WSW 22:16:48 25° SSW 22:23:37 13° SSE visible
25 Jun 10.2 23:27:43 10° SW 23:31:38 13° SSW 23:33:22 13° SSW visible
26 Jun 9.7 22:15:34 10° WSW 22:20:01 18° SSW 22:25:55 11° SSE visible
